TimeCST,TemperatureF,Dew PointF,Humidity,Sea Level PressureIn,VisibilityMPH,Wind Direction,Wind SpeedMPH,Gust SpeedMPH,PrecipitationIn,Events,Conditions,WindDirDegrees,DateUTC
12:54 AM,41.0,36.0,82,30.23,10.0,NE,5.8,-,N/A,,Clear,40,2013-02-09 06:54:00
1:54 AM,39.0,35.1,86,30.25,10.0,ENE,3.5,-,N/A,,Clear,70,2013-02-09 07:54:00
2:54 AM,37.9,35.1,89,30.24,10.0,ENE,4.6,-,N/A,,Clear,60,2013-02-09 08:54:00
3:54 AM,37.0,34.0,89,30.22,9.0,ENE,3.5,-,N/A,,Clear,60,2013-02-09 09:54:00
4:54 AM,36.0,33.1,89,30.23,8.0,NE,4.6,-,N/A,,Clear,50,2013-02-09 10:54:00
5:54 AM,35.1,33.1,92,30.25,8.0,North,3.5,-,N/A,,Clear,10,2013-02-09 11:54:00
6:54 AM,35.1,32.0,89,30.23,6.0,ENE,3.5,-,N/A,,Clear,70,2013-02-09 12:54:00
7:54 AM,37.9,34.0,86,30.24,7.0,Variable,3.5,-,N/A,,Clear,0,2013-02-09 13:54:00
8:54 AM,42.1,34.0,73,30.25,10.0,ESE,8.1,-,N/A,,Clear,110,2013-02-09 14:54:00
9:54 AM,46.0,35.1,66,30.27,10.0,SE,5.8,-,N/A,,Clear,140,2013-02-09 15:54:00
10:54 AM,50.0,35.1,57,30.27,10.0,SSE,6.9,-,N/A,,Clear,150,2013-02-09 16:54:00
11:54 AM,55.0,32.0,42,30.24,10.0,SE,5.8,-,N/A,,Clear,140,2013-02-09 17:54:00
12:54 PM,57.9,32.0,37,30.18,10.0,ESE,9.2,-,N/A,,Clear,120,2013-02-09 18:54:00
1:54 PM,57.9,36.0,44,30.15,10.0,ESE,10.4,-,N/A,,Clear,120,2013-02-09 19:54:00
2:54 PM,62.1,39.9,44,30.12,10.0,ESE,6.9,-,N/A,,Clear,110,2013-02-09 20:54:00
3:54 PM,62.1,42.1,48,30.11,10.0,SSE,6.9,-,N/A,,Clear,150,2013-02-09 21:54:00
4:54 PM,61.0,45.0,56,30.10,10.0,SE,8.1,-,N/A,,Mostly Cloudy,130,2013-02-09 22:54:00
5:54 PM,55.9,45.0,67,30.12,10.0,SE,3.5,-,N/A,,Overcast,130,2013-02-09 23:54:00
6:54 PM,57.9,44.1,60,30.11,10.0,ESE,8.1,-,N/A,,Overcast,110,2013-02-10 00:54:00
7:54 PM,55.9,43.0,62,30.10,10.0,ESE,8.1,-,N/A,,Scattered Clouds,120,2013-02-10 01:54:00
8:54 PM,55.9,43.0,62,30.10,10.0,ESE,6.9,-,N/A,,Overcast,120,2013-02-10 02:54:00
9:54 PM,55.0,42.1,62,30.09,10.0,SE,9.2,-,N/A,,Mostly Cloudy,140,2013-02-10 03:54:00
10:54 PM,53.1,42.1,66,30.09,10.0,SE,6.9,-,N/A,,Mostly Cloudy,130,2013-02-10 04:54:00
11:54 PM,53.1,45.0,74,30.07,10.0,SE,9.2,-,N/A,,Scattered Clouds,130,2013-02-10 05:54:00